Temp
-24 -24 -25 -25 -25 -25 -25 -26 -26 -26 -26 -26 -26 -26 -26 -26 -26 -26 -25 -25 -26 -26 -26 -26 -26 -26 -26 -26 -26 -26 -26 -26 -26 -26 -26 -26 -26 -26 -26 -26 -26 -26
-25 -25 -25 -25 -25 -25 -25 -25 -26 -26 -26 -26 -26 -26 -26 -26 -26 -26 -26 -26 -26 -26 -26 -26 -26 -26 -27 -27 -26 -26 -26 -26 -26 -27 -26 -26 -27 -27 -27 -27 -26 -26
-25 -25 -25 -25 -26 -26 -26 -26 -26 -26 -26 -26 -26 -26 -26 -26 -26 -26 -26 -26 -26 -26 -26 -27 -27 -27 -27 -27 -27 -27 -27 -27 -27 -27 -27 -27 -27 -27 -27 -27 -27 -27
-26 -26 -26 -26 -26 -26 -26 -26 -26 -26 -26 -26 -26 -26 -26 -26 -26 -27 -27 -27 -27 -27 -27 -28 -28 -28 -28 -28 -28 -28 -28 -28 -28 -28 -28 -28 -27 -28 -28 -28 -27 -27
-26 -26 -26 -26 -26 -26 -26 -26 -26 -26 -26 -26 -27 -27 -27 -27 -27 -27 -28 -28 -28 -28 -29 -29 -29 -29 -29 -29 -29 -29 -29 -28 -28 -29 -29 -28 -28 -28 -28 -28 -28 -28
-26 -26 -26 -26 -26 -26 -26 -26 -26 -27 -27 -27 -27 -27 -27 -27 -28 -28 -28 -29 -29 -29 -30 -30 -30 -30 -30 -30 -30 -30 -30 -29 -29 -29 -29 -29 -29 -29 -29 -29 -29 -28
-26 -26 -26 -27 -27 -27 -27 -27 -27 -27 -27 -27 -27 -28 -28 -28 -29 -29 -29 -30 -30 -30 -30 -31 -31 -31 -31 -31 -31 -30 -30 -30 -30 -30 -30 -30 -30 -30 -30 -30 -29 -29
-27 -27 -27 -27 -27 -27 -27 -27 -27 -27 -27 -28 -28 -29 -30 -30 -30 -30 -30 -31 -31 -31 -31 -31 -31 -31 -31 -31 -31 -31 -31 -31 -30 -30 -30 -31 -31 -31 -31 -31 -30 -30
-27 -27 -27 -27 -27 -27 -27 -27 -28 -28 -28 -29 -29 -30 -30 -31 -31 -31 -31 -31 -31 -31 -32 -31 -31 -32 -32 -32 -32 -31 -31 -31 -31 -31 -31 -31 -31 -32 -32 -31 -31 -30
-27 -27 -27 -27 -28 -28 -28 -28 -28 -29 -29 -30 -30 -31 -31 -32 -32 -32 -32 -32 -32 -32 -32 -32 -32 -32 -32 -32 -32 -32 -32 -32 -31 -31 -31 -32 -32 -32 -32 -31 -31 -31
-28 -28 -28 -28 -28 -28 -28 -29 -29 -30 -30 -31 -31 -32 -32 -32 -32 -33 -33 -32 -32 -32 -32 -32 -32 -32 -32 -32 -32 -33 -32 -32 -32 -32 -32 -32 -33 -32 -32 -31 -31 -31
-28 -28 -28 -28 -28 -29 -29 -30 -30 -31 -32 -32 -32 -32 -32 -32 -32 -33 -33 -33 -33 -33 -33 -33 -33 -33 -33 -33 -33 -33 -33 -33 -33 -32 -32 -33 -33 -33 -32 -32 -31 -31
-28 -28 -28 -28 -29 -29 -30 -31 -31 -32 -32 -33 -33 -33 -33 -33 -33 -33 -33 -33 -33 -33 -33 -33 -33 -33 -33 -33 -33 -34 -34 -34 -33 -33 -33 -34 -34 -33 -32 -32 -31 -31
-28 -28 -28 -28 -29 -30 -31 -31 -32 -33 -33 -33 -33 -33 -33 -33 -33 -33 -33 -33 -33 -33 -33 -33 -33 -33 -33 -33 -34 -34 -34 -34 -34 -34 -34 -34 -34 -33 -32 -32 -32 -32
-28 -28 -28 -29 -30 -31 -32 -32 -33 -33 -34 -34 -34 -34 -34 -33 -33 -34 -34 -33 -33 -33 -33 -33 -34 -34 -34 -34 -34 -34 -34 -34 -34 -35 -35 -34 -34 -33 -32 -32 -32 -32
-28 -28 -29 -29 -30 -32 -33 -33 -34 -34 -34 -34 -34 -34 -34 -34 -34 -34 -34 -34 -34 -34 -34 -34 -34 -34 -34 -34 -34 -34 -34 -34 -35 -35 -35 -34 -34 -33 -32 -32 -32 -32
-28 -28 -29 -30 -31 -33 -33 -34 -34 -34 -35 -35 -35 -35 -34 -34 -34 -34 -34 -34 -34 -34 -34 -34 -34 -34 -34 -34 -34 -34 -34 -34 -35 -35 -34 -34 -33 -33 -32 -32 -32 -32
-29 -29 -30 -31 -32 -33 -34 -34 -35 -35 -35 -35 -35 -35 -35 -34 -34 -34 -34 -34 -34 -34 -34 -34 -34 -34 -34 -34 -34 -34 -34 -34 -35 -35 -34 -34 -33 -33 -33 -32 -32 -32
-29 -30 -30 -31 -33 -34 -34 -35 -35 -35 -35 -35 -35 -35 -35 -35 -34 -35 -35 -34 -34 -34 -34 -34 -34 -34 -34 -34 -34 -34 -34 -34 -34 -35 -35 -34 -34 -33 -33 -33 -33 -32
-30 -31 -31 -32 -33 -34 -34 -35 -35 -35 -35 -35 -35 -35 -35 -35 -35 -35 -35 -35 -34 -34 -34 -34 -34 -34 -34 -34 -34 -34 -34 -34 -34 -35 -35 -34 -34 -33 -33 -33 -33 -33
-31 -31 -32 -33 -34 -34 -34 -35 -35 -35 -35 -35 -35 -35 -35 -35 -35 -35 -35 -35 -35 -35 -34 -34 -34 -34 -34 -34 -34 -34 -34 -34 -34 -35 -35 -35 -34 -34 -33 -33 -33 -33
-31 -32 -33 -34 -34 -34 -34 -34 -35 -35 -35 -35 -35 -35 -35 -35 -35 -35 -35 -35 -35 -35 -34 -34 -34 -34 -34 -34 -34 -34 -34 -35 -35 -35 -35 -35 -35 -34 -34 -33 -33 -33
-32 -33 -34 -34 -34 -35 -35 -35 -35 -35 -35 -35 -35 -35 -35 -35 -35 -35 -35 -35 -35 -35 -35 -34 -34 -34 -34 -34 -34 -34 -34 -35 -35 -35 -35 -35 -35 -35 -34 -33 -33 -33
-33 -34 -34 -35 -35 -35 -35 -35 -35 -35 -35 -35 -35 -35 -35 -35 -35 -35 -35 -35 -35 -35 -35 -34 -34 -34 -34 -34 -34 -34 -35 -35 -35 -35 -35 -35 -35 -35 -34 -33 -33 -33
-34 -34 -35 -35 -35 -35 -35 -35 -35 -35 -35 -35 -35 -35 -35 -35 -35 -35 -35 -35 -35 -34 -34 -34 -34 -34 -34 -34 -34 -35 -35 -35 -35 -35 -35 -35 -35 -34 -34 -33 -33 -33
-34 -35 -35 -35 -35 -35 -35 -35 -35 -35 -35 -35 -35 -35 -35 -35 -35 -35 -35 -35 -35 -34 -34 -34 -34 -34 -34 -35 -35 -35 -35 -35 -35 -35 -35 -35 -35 -34 -34 -33 -33 -32
Height
5498 5494 5491 5487 5484 5480 5475 5471 5466 5461 5457 5453 5450 5446 5443 5438 5434 5432 5430 5428 5424 5420 5416 5413 5409 5406 5403 5400 5399 5397 5397 5396 5396 5395 5394 5395 5397 5398 5398 5399 5400 5401
5489 5485 5481 5477 5473 5469 5466 5462 5458 5453 5447 5442 5438 5434 5431 5426 5421 5418 5415 5413 5410 5406 5402 5399 5396 5392 5389 5386 5384 5383 5382 5382 5382 5381 5380 5381 5383 5384 5386 5387 5389 5390
5480 5475 5470 5466 5462 5458 5454 5450 5447 5443 5437 5432 5426 5421 5417 5413 5408 5404 5400 5396 5394 5391 5387 5384 5381 5378 5375 5372 5370 5368 5368 5368 5368 5367 5367 5368 5369 5371 5373 5375 5376 5378
5472 5467 5462 5457 5452 5447 5443 5439 5435 5431 5426 5421 5415 5409 5404 5399 5394 5389 5385 5380 5377 5375 5372 5369 5366 5363 5360 5358 5355 5354 5354 5354 5354 5353 5353 5355 5356 5358 5360 5361 5364 5366
5463 5458 5453 5448 5442 5437 5432 5427 5422 5417 5413 5408 5402 5396 5390 5385 5381 5375 5370 5366 5362 5359 5356 5353 5351 5349 5346 5343 5341 5341 5341 5340 5340 5340 5340 5342 5343 5345 5347 5349 5351 5354
5454 5448 5443 5437 5432 5426 5420 5414 5409 5403 5399 5394 5388 5382 5376 5371 5367 5362 5357 5352 5348 5345 5341 5339 5337 5335 5332 5330 5328 5328 5327 5327 5327 5327 5327 5329 5330 5332 5335 5337 5339 5342
5442 5437 5431 5425 5419 5413 5407 5401 5395 5389 5384 5379 5374 5368 5361 5356 5353 5349 5344 5340 5336 5333 5329 5326 5324 5322 5320 5318 5316 5315 5315 5314 5314 5313 5315 5317 5318 5320 5323 5326 5328 5331
5431 5425 5419 5413 5407 5401 5394 5388 5381 5375 5369 5364 5359 5354 5347 5342 5337 5335 5332 5328 5324 5321 5318 5315 5313 5310 5307 5306 5304 5303 5302 5302 5301 5301 5302 5304 5306 5309 5312 5315 5317 5320
5420 5414 5408 5401 5395 5388 5381 5375 5367 5360 5354 5348 5343 5339 5334 5329 5324 5320 5318 5315 5312 5309 5307 5304 5301 5299 5296 5294 5293 5292 5290 5290 5289 5289 5290 5292 5294 5298 5301 5305 5307 5310
5409 5402 5396 5389 5382 5374 5368 5362 5354 5347 5339 5333 5328 5324 5321 5317 5312 5307 5304 5302 5299 5297 5295 5292 5290 5287 5285 5283 5282 5280 5279 5278 5277 5277 5278 5280 5282 5286 5290 5294 5298 5301
5396 5390 5383 5375 5368 5360 5353 5346 5340 5333 5326 5319 5314 5310 5307 5304 5300 5295 5291 5289 5287 5285 5283 5281 5279 5276 5274 5272 5271 5269 5268 5266 5266 5265 5266 5269 5271 5275 5280 5284 5288 5292
5384 5377 5369 5361 5353 5346 5338 5331 5324 5318 5312 5306 5301 5297 5293 5291 5288 5284 5280 5277 5275 5273 5271 5269 5267 5265 5264 5262 5260 5259 5257 5255 5254 5254 5255 5257 5261 5265 5270 5274 5279 5283
5372 5364 5356 5348 5339 5331 5323 5316 5309 5303 5297 5292 5288 5284 5281 5278 5275 5272 5268 5265 5263 5262 5259 5257 5256 5255 5254 5252 5250 5248 5247 5245 5243 5242 5244 5247 5250 5255 5260 5265 5269 5273
5359 5351 5342 5333 5324 5315 5308 5300 5294 5288 5282 5278 5274 5271 5268 5266 5262 5260 5257 5254 5252 5250 5248 5246 5245 5244 5243 5242 5240 5238 5237 5235 5233 5232 5234 5237 5241 5246 5252 5256 5260 5264
5345 5337 5328 5318 5309 5300 5292 5285 5279 5274 5269 5265 5261 5257 5255 5253 5250 5247 5245 5243 5241 5239 5237 5236 5235 5234 5234 5232 5230 5229 5228 5226 5224 5224 5226 5229 5233 5238 5243 5248 5252 5256
5331 5323 5315 5305 5296 5286 5278 5271 5266 5261 5256 5252 5248 5245 5242 5240 5238 5236 5233 5231 5230 5228 5226 5225 5225 5225 5224 5222 5221 5220 5219 5218 5216 5217 5219 5222 5226 5230 5235 5239 5243 5246
5315 5308 5300 5291 5282 5273 5266 5260 5254 5249 5244 5241 5237 5234 5231 5228 5226 5224 5222 5220 5218 5217 5216 5215 5215 5216 5215 5213 5212 5211 5210 5210 5209 5210 5213 5216 5219 5223 5226 5230 5234 5237
5301 5293 5286 5277 5268 5260 5254 5248 5243 5237 5233 5229 5226 5223 5220 5217 5215 5213 5211 5209 5207 5207 5206 5206 5206 5206 5205 5204 5203 5202 5202 5202 5202 5204 5206 5209 5212 5215 5218 5221 5225 5229
5288 5280 5272 5264 5255 5248 5242 5237 5231 5226 5221 5217 5214 5212 5209 5206 5204 5202 5201 5199 5197 5197 5196 5196 5197 5197 5196 5195 5195 5194 5193 5193 5195 5197 5199 5202 5205 5208 5211 5214 5218 5222
5274 5265 5257 5249 5241 5234 5229 5224 5219 5215 5210 5206 5203 5200 5198 5196 5194 5192 5191 5189 5187 5187 5187 5187 5188 5188 5187 5186 5186 5185 5184 5184 5187 5190 5192 5194 5197 5201 5204 5207 5211 5214
5261 5252 5245 5237 5229 5223 5217 5211 5206 5202 5199 5195 5192 5189 5187 5185 5183 5182 5180 5179 5178 5177 5178 5178 5178 5178 5178 5178 5177 5177 5175 5175 5179 5183 5186 5188 5190 5193 5197 5200 5203 5207
5249 5241 5234 5227 5219 5212 5206 5200 5194 5190 5187 5184 5181 5179 5177 5174 5173 5172 5171 5170 5169 5168 5168 5169 5170 5169 5169 5169 5168 5167 5167 5168 5171 5174 5178 5181 5184 5186 5189 5193 5196 5200
5237 5228 5222 5216 5209 5202 5195 5190 5183 5178 5175 5172 5170 5169 5167 5165 5163 5162 5161 5161 5161 5160 5160 5160 5161 5161 5160 5160 5160 5159 5158 5160 5163 5166 5170 5174 5177 5179 5181 5185 5190 5193
5225 5216 5208 5202 5197 5191 5184 5179 5173 5168 5164 5161 5159 5158 5157 5156 5154 5153 5153 5153 5153 5152 5152 5151 5152 5152 5151 5151 5151 5150 5151 5153 5156 5159 5163 5167 5170 5172 5174 5179 5183 5186
5212 5204 5196 5189 5183 5178 5172 5167 5162 5158 5154 5151 5150 5148 5147 5147 5145 5144 5145 5144 5144 5145 5144 5144 5144 5144 5143 5143 5143 5143 5144 5147 5150 5153 5156 5160 5163 5165 5168 5172 5176 5180
5200 5191 5184 5176 5170 5165 5160 5155 5150 5147 5144 5142 5140 5139 5138 5137 5137 5136 5137 5137 5137 5137 5137 5137 5137 5137 5135 5135 5136 5137 5139 5141 5145 5148 5150 5153 5156 5159 5162 5166 5170 5174
Wind_Speed
63 63 63 64 64 65 66 68 70 71 73 74 74 75 76 77 78 78 78 78 78 79 80 80 80 80 80 80 80 80 80 80 80 81 82 82 80 77 74 71 68 67
65 66 67 68 68 69 70 70 71 73 75 77 78 79 80 81 82 82 83 82 82 82 82 82 81 80 80 80 80 80 81 81 80 80 80 80 80 78 76 73 70 68
67 68 70 71 71 73 74 74 74 75 77 80 82 83 84 85 85 86 86 86 85 84 84 82 81 80 79 78 79 79 80 80 80 79 79 78 77 76 75 74 71 69
68 70 71 72 73 75 76 77 78 79 81 82 84 86 86 87 87 87 87 86 85 84 82 81 80 78 77 77 76 76 77 78 78 77 76 76 75 73 73 73 71 70
70 71 72 74 75 77 79 81 82 84 85 86 87 88 88 88 88 87 86 85 84 82 80 78 76 75 75 74 74 73 73 74 74 73 73 73 73 71 70 70 70 69
72 73 74 76 78 80 83 85 87 88 89 89 89 89 89 88 86 85 84 83 81 79 77 76 74 73 72 71 71 71 70 70 71 70 69 69 70 70 68 67 68 68
75 76 78 80 82 84 87 88 90 91 92 91 90 89 88 87 85 82 80 79 78 77 75 74 72 71 69 69 68 68 67 67 68 68 67 66 67 67 66 64 65 66
78 79 82 84 86 88 90 92 93 94 94 92 90 87 85 84 82 80 77 75 74 73 72 71 70 69 68 67 66 65 65 65 65 66 65 64 64 64 64 62 62 64
80 82 85 87 89 92 93 94 95 95 93 91 88 85 82 79 79 77 75 72 71 69 68 68 67 66 66 65 64 63 63 63 63 63 63 63 63 62 62 60 59 60
83 85 88 90 93 94 96 96 95 93 91 89 86 82 79 76 75 75 73 71 69 67 66 65 65 64 64 63 62 62 62 61 61 61 61 61 61 61 60 58 57 58
86 89 91 94 96 97 97 96 94 91 88 85 82 79 76 73 71 71 71 69 67 66 64 63 62 62 62 61 61 60 60 60 60 60 59 58 60 60 59 56 55 56
89 92 94 97 98 98 97 94 91 87 84 80 78 76 74 71 69 69 69 68 66 64 63 62 60 60 60 60 59 58 58 59 59 59 57 57 59 59 57 55 54 56
92 95 97 99 100 99 96 92 88 84 80 77 75 73 71 70 69 67 67 67 65 63 62 61 59 58 58 58 57 55 56 58 58 56 54 55 57 57 55 53 52 53
95 98 100 102 102 99 95 90 85 81 78 76 74 72 69 68 67 66 65 65 63 61 60 59 58 57 56 55 53 53 54 55 54 50 50 54 57 55 53 52 51 52
98 100 103 104 102 98 92 87 82 79 76 75 73 71 69 67 66 65 64 63 61 60 59 57 56 55 54 52 51 51 52 53 49 46 48 51 53 53 52 52 51 52
101 103 104 104 101 94 88 83 80 77 75 74 72 71 69 67 65 63 62 61 60 59 58 56 54 53 52 50 49 50 51 50 47 45 46 47 48 50 52 52 50 51
103 105 106 104 98 90 83 79 77 75 73 72 71 69 68 66 65 62 60 59 58 57 56 54 52 51 50 48 48 50 50 48 45 44 44 43 45 46 48 50 49 49
105 107 106 102 94 86 80 76 74 73 72 70 69 68 66 65 63 61 59 58 56 55 54 52 50 49 48 48 48 49 48 46 43 43 43 41 43 45 46 48 49 48
106 106 104 97 90 83 78 74 71 70 69 68 67 66 64 63 61 59 57 56 54 53 52 50 49 48 47 47 47 47 48 46 42 42 43 41 42 45 46 48 49 47
106 105 99 92 85 80 76 73 70 68 66 65 64 63 61 60 59 57 55 54 53 51 49 48 47 47 45 46 46 47 48 47 42 41 43 43 42 43 44 46 48 46
105 101 93 85 80 76 74 71 69 66 63 62 61 59 58 56 55 54 52 51 51 49 47 46 45 44 44 44 46 47 47 47 43 40 42 43 43 44 43 43 45 45
103 96 87 80 77 74 72 70 68 65 62 59 58 56 55 53 51 50 49 48 47 46 45 45 43 42 43 44 46 47 46 45 42 39 41 43 42 44 45 44 44 45
99 92 84 79 76 74 72 69 67 63 60 58 55 52 50 49 48 47 46 45 44 44 44 44 42 41 43 45 47 46 44 42 40 38 39 41 41 43 45 45 44 44
95 88 84 81 78 75 72 68 65 62 58 55 53 50 47 45 44 44 42 41 41 41 42 43 41 40 43 46 45 42 41 39 37 36 36 38 40 41 42 44 44 43
92 87 84 82 79 75 71 66 63 60 55 52 50 48 44 42 41 41 39 38 38 39 40 39 38 40 43 43 40 38 37 36 35 33 33 35 38 39 40 42 43 42
90 87 85 82 77 72 68 63 60 57 52 48 47 45 42 40 38 37 36 36 37 37 37 36 37 39 39 36 34 33 33 33 32 30 30 33 36 37 39 41 42 40
Wind_Direction
302 302 302 301 301 300 300 300 300 299 299 298 297 296 295 294 293 292 291 290 289 288 287 286 285 284 282 281 279 278 276 275 274 272 271 270 269 269 269 268 268 268
304 304 304 303 302 301 300 300 299 299 299 299 298 297 296 295 295 294 293 292 291 289 288 287 285 284 282 280 278 276 275 274 272 271 270 269 268 267 267 266 265 265
307 306 305 305 304 303 302 301 301 300 300 300 299 299 298 297 296 295 294 293 292 290 289 288 286 284 282 279 277 275 273 272 271 270 269 268 267 265 264 264 263 263
306 306 305 305 304 304 304 303 303 302 302 301 300 300 299 298 297 295 294 293 292 291 289 288 286 284 282 280 277 275 273 272 271 270 268 267 266 264 262 261 261 261
306 306 305 306 306 306 306 306 306 305 305 304 302 301 299 298 297 295 294 293 292 291 289 288 286 284 283 281 279 276 274 272 270 269 268 266 265 263 261 260 259 259
307 307 307 308 308 308 308 308 308 307 306 305 303 301 299 297 296 295 294 293 292 291 290 288 287 285 283 282 280 279 276 273 271 269 267 264 264 263 261 259 258 258
309 310 310 310 310 310 310 310 309 308 306 305 302 300 298 296 295 293 292 291 290 289 289 288 287 286 284 283 281 280 278 275 272 270 267 262 261 262 262 259 257 257
312 312 312 312 312 312 311 310 309 308 306 304 301 299 297 295 294 292 291 290 288 288 287 287 286 285 285 284 283 281 280 277 273 270 267 261 257 259 261 261 258 257
313 313 313 313 313 312 312 311 309 307 305 302 300 297 295 294 293 291 290 289 288 287 286 286 286 285 285 284 284 283 281 278 274 270 266 260 254 254 258 260 260 257
314 314 314 314 313 313 312 310 308 306 303 301 298 296 294 292 292 291 290 289 288 288 287 286 285 285 284 284 284 283 282 280 276 271 265 258 252 252 254 257 259 259
314 315 315 314 314 313 312 310 307 304 302 299 297 295 293 292 292 291 291 290 289 288 287 286 285 284 284 284 284 284 283 282 278 272 265 256 250 249 251 252 256 259
315 315 316 315 314 313 311 309 306 303 300 298 296 294 294 293 292 291 291 291 290 289 288 286 284 284 284 284 284 284 284 283 280 273 264 254 248 247 249 250 252 256
316 316 316 316 315 313 311 308 305 302 299 297 295 294 294 294 293 292 291 290 290 289 287 286 284 283 284 284 283 283 284 284 282 274 261 250 246 246 247 247 248 252
317 317 317 316 315 313 311 308 305 302 300 298 296 295 294 294 293 292 291 290 289 288 286 284 284 283 284 283 282 282 284 287 284 271 257 248 246 245 245 245 246 250
318 318 318 317 316 314 311 307 304 302 300 298 297 296 295 294 293 292 291 290 289 287 285 284 283 283 283 282 281 281 284 288 282 264 253 250 247 244 244 245 246 249
319 319 318 317 316 313 309 306 303 301 300 298 297 296 295 294 293 292 291 290 288 286 285 283 282 282 282 279 279 280 282 286 279 260 252 253 250 246 246 243 243 248
319 319 319 317 315 312 308 305 303 301 299 297 296 295 295 294 293 292 291 289 287 285 283 282 281 280 280 276 277 279 280 283 277 259 253 254 250 246 243 239 241 247
320 320 319 317 314 311 307 304 302 300 298 296 295 294 293 292 292 291 290 288 286 284 282 281 280 280 278 274 275 279 280 280 274 259 254 254 249 245 241 238 243 246
320 320 318 316 313 310 306 303 301 299 298 295 294 293 292 291 290 290 289 287 285 283 281 280 279 278 276 272 274 279 279 277 272 259 253 253 249 244 242 242 245 245
320 319 318 315 313 310 307 303 299 298 297 295 293 292 291 290 289 288 287 285 284 282 280 278 278 277 274 271 274 279 276 272 270 259 251 251 251 246 243 244 245 244
320 319 317 315 313 311 310 306 300 296 296 295 293 292 290 289 287 286 285 283 282 281 278 277 277 275 273 271 274 278 274 268 268 260 249 248 251 249 245 244 244 242
320 319 316 314 313 312 311 309 304 297 294 294 294 292 290 289 286 284 283 281 281 280 277 277 277 274 272 273 276 277 271 264 265 262 250 244 248 250 247 244 243 241
320 318 316 314 313 311 310 309 307 300 294 293 294 292 290 288 285 283 281 279 278 277 276 277 276 273 273 276 277 275 268 261 261 261 252 243 244 248 247 244 243 241
320 318 316 314 312 311 308 307 307 303 295 291 293 293 290 287 284 282 280 278 275 274 275 276 275 273 275 277 275 269 262 258 257 257 252 243 241 245 245 241 240 240
319 317 316 315 313 311 309 306 305 303 296 290 292 293 290 287 284 280 278 276 274 274 275 275 274 275 276 275 270 263 257 254 254 254 250 243 241 243 241 237 237 237
319 318 316 316 314 312 310 306 303 303 297 289 290 292 289 286 283 279 276 274 273 274 274 274 275 276 275 271 264 257 254 252 251 249 245 241 241 239 235 234 235 234